Location: Newark
(54.4000°N, 32.4500°E)
Time: 20:50:42
(UTC+00:00)

Envisat - Pass Details

Date: 24 January 2020
Orbit: 764 x 766 km, 98.1° (Epoch: 25 February)

Event Time Altitude Azimuth Distance (km) Brightness Sun altitude
Rises 14:47:27 0° 147° (SSE) 3,226 6.2 -5.3°
Reaches altitude 10° 14:49:48 10° 142° (SE) 2,304 5.4 -5.6°
Maximum altitude 14:54:43 53° 67° (ENE) 946 3.2 -6.2°
Drops below altitude 10° 14:59:40 10° 352° (N) 2,318 5.3 -6.9°
Sets 15:02:01 0° 348° (NNW) 3,249 6.1 -7.2°
